Análise da corrida

 :: S66

Ir em baixo

Análise da corrida

Mensagem por Gabriel Miranda em Qui Out 11, 2018 10:25 am

Yeongam (South Korea), Época 66


Volta Tempo volta Pos Pneus Tempo Temp (°) Hum (%) Ocorrências
0 - 18 Médios Nublado 22 50 -
1 1:55.548 20 Médios Nublado 22 50 -
2 1:46.126 20 Médios Nublado 22 50 -
3 1:46.098 21 Médios Nublado 22 50 -
4 1:44.974 20 Médios Nublado 22 51 -
5 1:44.364 20 Médios Nublado 22 51 -
6 1:44.470 19 Médios Nublado 22 51 -
7 1:44.775 19 Médios Nublado 23 51 -
8 1:44.527 19 Médios Nublado 24 51 -
9 1:43.852 19 Médios Nublado 24 51 -
10 1:44.250 19 Médios Nublado 24 51 -
11 1:44.183 19 Médios Nublado 24 51 -
12 1:43.791 18 Médios Nublado 25 51 -
13 1:43.184 17 Médios Nublado 25 51 -
14 1:42.953 16 Médios Nublado 25 51 -
15 1:42.870 14 Médios Nublado 25 51 -
16 1:42.965 13 Médios Nublado 25 51 -
17 1:42.792 12 Médios Nublado 25 51 -
18 1:42.740 10 Médios Nublado 25 51 -
19 1:54.502 12 Médios Nublado 25 51 Pit
20 2:20.176 19 Médios Nublado 25 51 -
21 1:44.410 19 Médios Nublado 25 51 -
22 1:43.959 18 Médios Nublado 25 51 -
23 1:43.868 17 Médios Nublado 25 51 -
24 1:48.847 20 Médios Nublado 25 51 Erro do Piloto
25 1:43.634 20 Médios Nublado 25 51 -
26 1:43.469 20 Médios Nublado 25 51 -
27 1:43.339 20 Médios Nublado 25 51 -
28 1:43.147 20 Médios Nublado 25 51 -
29 1:43.072 16 Médios Nublado 25 51 -
30 1:43.768 15 Médios Nublado 25 51 -
31 1:43.054 13 Médios Nublado 25 51 -
32 1:43.276 11 Médios Nublado 25 51 -
33 1:42.990 11 Médios Nublado 25 51 -
34 1:41.924 11 Médios Nublado 25 51 -
35 1:41.962 11 Médios Nublado 25 51 -
36 1:41.649 11 Médios Nublado 25 51 -
37 1:53.981 13 Médios Nublado 25 51 Pit
38 2:20.105 16 Médios Nublado 25 51 -
39 1:43.831 16 Médios Nublado 25 51 -
40 1:43.784 16 Médios Nublado 25 51 -
41 1:43.811 16 Médios Nublado 25 51 -
42 1:43.581 16 Médios Nublado 25 51 -
43 1:43.285 15 Médios Nublado 25 51 -
44 1:43.423 15 Médios Nublado 25 51 -
45 1:42.996 14 Médios Nublado 25 51 -
46 1:43.142 13 Médios Nublado 25 51 -
47 1:43.063 13 Médios Nublado 25 51 -
48 1:43.212 13 Médios Nublado 25 51 -
49 1:42.768 12 Médios Nublado 25 50 -
50 1:42.724 12 Médios Nublado 25 49 -
51 1:42.530 12 Médios Nublado 25 49 -
52 1:42.768 12 Médios Nublado 26 49 -
53 1:42.690 12 Médios Nublado 27 49 -
54 1:42.815 12 Médios Nublado 27 49 -
55 1:43.316 12 Médios Nublado 27 49 -


Riscos usados:
Ultrapassagem Defesa Pista Livre e Seca Pista Livre e Chuva Avaria
30 30 40 40 0

Afinação usada:
Asa Dianteira Asa Traseira Motor Travões Caixa Suspensão
909 849 557 747 597 482

Cha Mot ADiant ATras Carroç Later Refrig Caixa Trav Susp Elec
Nível das peças: 5 5 5 5 5 5 5 5 5 5 5
Desgaste das Peças (no início) (%): 15 35 19 19 18 64 45 67 0 59 36
Desgaste das Peças (no final) (%): 36 69 42 44 34 81 63 86 24 80 51

Combustível inicíal (litros): 77

Pit Razão da paragem Estado pneus (%) Combust. restante (%) Reabast. até (litros) Tempo da paragem (seg)
Paragem 1 (Volta 19): Não havia mais combustível 20 1 73 litros 23.502
Paragem 2 (Volta 37): Não havia mais combustível 23 1 73 litros 23.724

Estado dos pneus após o final (%): 24

Combustível restante no final (litros): 3
Gabriel Miranda
Gabriel Miranda

Mensagens : 1004
Data de inscrição : 29/12/2014
Idade : 45

Voltar ao Topo Ir em baixo

Voltar ao Topo

- Tópicos similares

 :: S66

 
Permissão deste fórum:
Você não pode responder aos tópicos neste fórum